GEFSSGP_con_cape1000_120.txt.gz
Probability
48 45 23 16 16 3 0 0 0 0 0 3 3 3 3 6 0 0 0 10 42 65 94 100 100 100 100 100 100 100 100 100 100 100 100 100 100 100 100 100 100 100 97 87 87 87 90 94 97
29 29 19 10 6 0 0 0 0 3 3 6 10 19 26 29 23 10 10 26 52 74 90 100 100 100 100 100 100 100 100 100 100 100 100 100 100 100 100 97 97 94 90 84 84 87 94 97 97
19 6 10 6 3 0 0 0 0 10 3 19 19 23 32 48 39 23 32 45 61 81 90 100 100 100 100 100 100 100 100 100 100 100 100 100 100 100 97 94 94 94 87 84 84 87 97 97 97
3 3 6 6 0 0 0 0 3 10 16 26 26 29 35 48 58 42 45 55 68 84 84 100 100 100 100 100 100 100 100 100 100 100 100 100 100 100 94 94 94 90 87 87 84 81 87 97 100
3 3 3 0 0 0 3 3 6 10 23 32 35 39 35 42 52 45 58 65 74 84 94 100 100 100 100 100 100 100 100 100 100 100 100 100 100 100 100 94 97 94 87 87 84 87 87 90 97
0 3 0 0 0 0 0 6 13 16 35 45 39 32 39 45 42 48 58 68 77 87 97 100 100 100 100 100 100 100 100 100 100 100 100 100 100 100 97 97 87 90 90 84 87 87 90 87 87
0 0 0 0 0 0 6 6 16 26 39 39 42 35 39 48 39 45 61 61 68 90 94 100 100 100 100 100 100 100 100 100 100 100 100 100 97 97 97 97 90 77 84 90 87 84 84 84 84
0 0 0 0 0 0 3 6 13 16 35 39 32 29 29 45 39 32 48 65 74 90 94 97 100 100 100 100 100 100 100 100 100 100 100 100 97 97 97 100 90 81 81 90 87 84 84 84 90
0 0 0 0 0 3 3 10 19 29 39 39 32 42 29 45 45 48 55 71 71 90 94 94 97 97 100 100 100 100 100 100 100 100 100 100 90 94 97 94 90 81 81 77 84 84 81 74 77
0 3 0 0 0 0 3 10 19 32 39 42 58 45 52 55 48 45 52 61 68 81 84 87 90 97 97 100 100 100 100 100 100 100 100 84 71 77 84 94 94 87 84 84 77 74 61 48 39
0 0 0 0 0 0 3 6 26 29 35 39 61 55 61 55 45 48 42 48 61 71 74 84 87 87 84 94 97 97 94 97 87 87 77 65 52 65 68 65 84 77 65 39 48 45 35 23 16
0 0 0 0 0 3 6 6 16 23 19 29 61 58 61 58 52 52 39 52 61 71 74 74 77 81 81 81 90 77 81 81 77 74 65 45 35 29 29 29 29 29 23 16 13 16 19 13 13
0 0 0 0 0 3 3 13 16 26 26 42 55 61 61 58 55 55 48 45 45 65 71 71 71 74 68 74 81 81 71 68 68 55 48 29 26 16 13 10 10 16 10 6 6 6 10 10 13
0 0 0 0 0 6 10 13 19 23 26 32 52 55 58 55 48 48 35 42 42 45 55 58 65 65 61 65 65 58 61 52 48 48 45 29 16 6 6 6 6 3 3 3 3 3 3 3 3
0 0 0 0 0 6 6 10 19 19 23 35 42 48 48 42 45 39 35 32 29 29 35 48 48 52 48 45 48 45 42 42 35 35 32 23 6 6 6 3 3 0 0 0 0 0 0 0 0
0 0 0 0 0 0 0 0 10 16 29 35 42 42 39 42 35 35 35 29 23 23 19 29 48 52 42 42 42 39 35 39 35 29 13 16 10 6 3 3 0 0 0 0 0 0 0 0 0
0 0 0 0 0 0 0 0 6 13 32 26 23 32 35 26 19 13 16 19 19 19 16 29 32 35 42 35 16 19 19 19 16 10 10 10 10 3 3 3 0 0 0 0 0 0 0 0 0
0 0 0 0 0 0 0 0 6 6 10 13 19 29 23 19 16 16 16 13 19 13 13 19 29 29 29 16 6 10 6 6 3 6 6 3 3 3 3 0 0 0 0 0 0 0 0 0 0
0 0 0 0 0 0 0 0 10 3 3 6 10 16 23 19 6 6 10 16 16 16 10 13 19 16 10 10 10 16 10 10 13 3 3 3 3 3 0 0 0 0 0 0 0 0 0 0 0
0 0 0 0 0 0 3 3 6 3 0 6 13 16 19 16 13 16 19 19 10 19 10 10 16 13 13 13 10 10 6 10 10 10 3 3 3 3 0 0 0 0 0 0 0 0 0 0 0
0 0 0 0 0 3 0 6 10 3 3 6 3 6 6 16 13 6 19 13 16 13 10 13 19 10 6 10 10 3 3 3 3 3 6 3 3 3 0 0 0 0 0 0 0 0 0 0 0
0 0 0 0 0 0 0 0 0 3 3 6 3 6 3 10 10 10 16 13 16 16 13 13 16 10 6 10 10 6 3 3 3 3 6 3 3 3 3 0 0 0 0 0 0 0 0 0 0
0 0 0 0 0 0 0 0 0 0 0 3 3 3 3 6 6 10 13 16 19 13 13 19 16 10 6 6 6 6 6 3 3 0 0 0 0 0 3 3 0 0 0 0 0 0 0 0 0
0 0 0 0 0 0 0 0 0 0 0 0 0 3 3 6 6 3 10 13 10 10 13 13 16 13 13 6 6 6 6 3 3 0 0 0 0 0 0 3 3 0 0 0 0 0 0 0 0
0 0 0 0 0 0 0 0 0 0 0 0 0 0 3 3 6 3 3 3 10 13 13 13 13 10 10 10 10 6 6 3 3 0 0 0 0 0 0 0 0 3 0 0 0 0 0 0 0
0 0 0 0 0 0 0 0 0 0 0 0 0 3 3 3 3 0 0 0 3 13 13 13 10 13 10 10 10 10 3 3 3 0 0 0 0 0 0 0 0 3 0 0 0 0 0 0 0
0 0 0 0 0 0 0 0 0 0 0 0 0 0 3 3 3 0 0 0 0 3 10 10 10 10 6 6 10 10 0 0 3 0 0 0 0 0 0 0 0 3 0 0 0 0 0 0 0
0 0 0 0 0 0 0 0 0 0 0 0 0 0 0 3 3 3 0 0 0 0 6 10 13 10 6 6 6 6 6 3 6 0 0 0 0 0 0 3 3 0 0 0 0 0 0 0 0
0 0 0 0 0 0 0 0 0 0 0 0 0 0 0 3 3 3 3 0 0 0 3 13 13 6 6 6 6 6 6 6 0 0 0 0 0 0 0 0 3 0 0 0 0 0 0 0 0
0 0 0 0 0 0 0 0 0 0 0 0 0 0 0 3 3 6 3 0 3 3 3 6 13 6 6 10 6 6 6 6 3 0 0 0 0 0 0 0 0 0 0 0 0 0 0 0 0

GEFSSGP_con_cape1000_126.txt.gz
Probability
35 39 58 71 58 3 0 0 0 0 0 13 3 3 3 3 3 35 48 16 23 48 81 94 100 100 100 100 100 100 100 100 100 100 100 100 100 100 100 94 90 90 87 90 90 90 94 97 100
29 55 55 52 23 0 0 0 0 0 6 23 16 13 13 32 42 65 42 29 39 52 81 94 100 100 100 100 100 100 100 100 100 100 100 100 100 100 97 94 94 94 87 87 90 90 90 97 97
35 42 45 19 6 0 0 0 0 6 19 16 23 26 23 58 61 74 65 42 45 71 90 100 100 100 100 100 100 100 100 100 100 100 100 100 100 97 94 94 90 90 81 81 90 87 90 94 97
26 35 35 16 0 0 0 0 6 6 32 32 32 45 61 65 71 81 65 52 61 81 90 100 100 100 100 100 100 100 100 100 100 100 100 100 97 94 94 94 94 87 84 87 87 90 94 97 100
23 26 13 3 0 0 0 0 3 6 16 45 26 39 74 84 87 84 77 55 68 71 94 100 100 100 100 100 100 100 100 100 100 100 100 100 97 97 94 94 94 87 81 84 84 97 97 100 100
19 13 10 0 0 0 0 13 10 6 19 48 42 42 74 87 87 90 84 61 55 65 87 100 100 100 100 100 100 100 100 100 100 100 100 100 100 97 97 90 87 87 87 77 87 90 94 94 94
16 6 3 0 0 0 3 13 6 6 19 42 45 52 84 87 87 90 84 74 61 61 94 100 100 100 100 100 100 100 100 100 100 100 100 100 100 100 97 84 87 87 81 87 87 90 90 84 84
13 3 0 0 0 0 3 13 13 16 29 58 58 52 77 87 90 90 81 84 65 74 94 100 100 100 100 97 100 100 100 100 100 100 97 97 94 94 90 87 90 84 90 90 90 84 77 71 74
13 3 0 0 0 0 3 10 16 23 39 65 65 58 74 84 81 81 87 90 90 87 90 94 100 100 97 97 100 100 100 100 100 100 97 97 87 77 87 77 81 81 87 87 87 84 77 74 77
3 3 0 0 0 0 0 0 10 16 29 58 65 77 81 84 87 84 87 90 94 100 94 97 97 100 97 100 100 100 100 100 100 100 100 94 87 87 71 84 77 90 84 81 81 77 45 42 71
3 3 0 0 0 0 0 0 6 10 10 23 52 77 81 84 84 81 81 94 97 100 94 90 100 100 97 100 100 100 100 100 100 100 100 100 100 84 74 90 94 90 84 71 71 39 35 39 68
3 3 3 0 0 0 0 0 3 10 6 26 48 77 81 84 84 81 81 81 90 90 94 87 94 100 100 97 100 100 100 97 100 100 100 100 97 90 87 90 77 81 84 74 48 74 45 48 52
3 3 0 0 0 0 0 0 10 19 26 39 65 81 77 81 84 84 81 81 87 87 81 81 90 97 97 94 100 100 97 94 97 100 100 97 94 97 84 97 81 58 55 61 71 52 61 55 48
0 0 0 0 3 3 6 10 10 23 32 39 68 84 81 81 74 81 81 84 84 84 81 74 77 87 90 94 97 97 94 97 94 94 100 100 97 97 94 97 90 65 55 61 45 42 55 58 48
0 0 0 0 0 3 6 10 16 29 35 45 65 81 84 84 77 77 81 77 77 71 71 68 71 71 84 94 90 90 94 94 94 97 100 100 90 94 97 77 84 74 68 71 55 45 35 35 32
0 0 0 0 0 0 6 0 13 26 32 39 65 74 81 81 81 81 77 71 71 65 68 71 65 71 81 87 84 87 87 94 90 90 90 90 94 90 90 71 58 65 61 48 48 35 23 16 10
0 0 0 0 0 0 0 0 16 32 35 48 61 74 74 74 81 68 65 61 61 61 65 65 65 68 71 74 81 84 87 87 84 87 87 90 87 77 84 74 71 61 45 35 26 23 19 13 13
0 0 0 0 0 0 0 0 13 32 48 48 61 74 74 71 74 68 61 58 61 58 61 58 55 71 71 74 77 77 81 77 81 81 84 74 81 71 55 65 65 52 45 48 26 16 16 13 10
0 0 0 0 0 0 0 0 6 45 45 52 65 68 71 71 61 68 65 65 58 58 52 55 55 65 68 71 68 68 65 68 81 77 74 68 52 61 61 35 58 48 42 32 16 6 6 10 10
0 0 0 0 0 0 0 3 10 45 52 58 71 71 71 68 65 68 65 61 55 52 45 52 58 55 58 65 61 68 61 61 71 68 65 61 52 58 39 52 42 42 45 32 16 19 6 6 3
0 0 0 0 0 0 0 0 26 42 52 58 55 65 68 68 65 65 65 52 42 42 42 45 48 52 55 55 55 58 55 48 58 65 65 55 52 45 32 45 35 39 23 23 16 16 6 3 0
0 0 0 0 0 0 0 0 10 35 39 48 55 58 61 58 52 58 52 39 39 35 42 45 48 48 48 52 52 42 48 45 55 58 65 58 42 35 29 35 29 32 19 19 16 10 10 3 3
0 0 0 0 0 0 0 0 0 13 19 32 48 55 48 58 58 55 48 42 39 39 35 32 48 48 45 45 58 58 45 52 45 52 52 48 45 32 29 29 32 32 16 13 13 13 10 10 6
0 0 0 0 0 0 0 0 0 0 10 16 39 48 48 48 55 55 45 39 35 35 32 29 45 55 52 55 52 48 45 52 45 48 45 48 39 35 26 29 32 29 19 23 13 16 6 10 10
0 0 0 0 0 0 0 0 0 0 0 0 26 39 48 48 48 39 45 39 35 32 26 29 39 48 48 48 52 55 52 58 58 58 52 48 39 35 42 23 39 35 23 23 16 19 10 6 6
0 0 0 0 0 0 0 0 0 0 0 6 19 29 42 45 48 39 39 35 42 29 32 29 32 45 48 48 52 55 58 58 52 61 48 52 39 26 42 32 39 26 23 13 23 13 10 13 10
0 0 0 0 0 0 0 0 0 6 3 16 23 32 39 32 45 42 48 32 39 26 32 39 39 48 48 48 55 58 65 58 58 71 61 48 55 35 35 35 32 23 23 26 26 16 13 13 10
0 0 0 0 0 0 0 0 0 13 16 26 29 32 42 35 39 35 42 35 39 32 35 35 45 48 45 48 55 48 58 65 71 68 55 48 48 39 39 32 32 32 29 32 29 23 19 23 23
0 0 0 0 0 0 0 0 0 16 23 29 32 32 42 39 32 32 42 39 39 29 39 35 42 45 42 48 55 55 58 61 61 58 52 55 65 61 52 42 35 29 29 32 35 13 19 19 19
0 0 0 0 0 0 0 0 3 16 16 23 26 39 48 52 39 42 48 42 42 32 32 39 45 48 55 52 52 48 55 55 55 48 55 58 52 58 58 55 42 35 29 35 35 26 16 23 23

GEFSSGP_con_cape1000_132.txt.gz
Probability
32 29 48 77 77 68 29 0 0 0 0 0 0 0 3 26 16 32 23 32 71 74 87 100 100 100 100 100 100 100 97 97 97 100 100 100 100 97 94 90 90 94 94 94 94 97 97 97 97
13 35 48 55 52 19 0 0 0 3 0 0 0 3 16 26 26 29 29 68 84 68 84 97 100 100 100 100 100 100 100 100 100 100 100 100 97 97 94 97 97 90 90 90 90 94 94 97 97
10 39 39 48 35 3 0 0 0 0 0 0 0 3 29 48 42 42 42 71 87 68 97 100 100 100 100 100 100 100 100 100 100 100 97 97 94 97 97 97 94 87 87 94 90 94 94 94 94
42 39 32 35 10 0 0 0 0 0 0 0 3 23 42 48 52 48 48 71 87 94 100 100 100 100 100 100 100 100 100 100 100 100 97 97 94 97 97 94 94 90 87 90 90 94 97 94 87
32 26 29 16 3 0 0 0 0 0 0 0 6 42 65 55 65 52 61 74 90 97 100 100 100 100 100 100 100 100 100 100 100 100 100 97 97 94 94 94 87 84 87 87 94 94 90 90 87
23 16 19 6 0 0 0 0 0 0 0 0 16 45 71 68 74 65 61 71 94 97 100 100 100 100 100 100 100 100 100 100 100 100 100 97 97 97 94 94 87 84 84 84 87 94 90 94 84
13 16 13 3 0 0 0 0 0 0 0 0 6 52 65 65 77 65 55 74 84 97 97 100 100 100 100 100 100 100 100 100 100 100 100 100 97 97 97 90 87 90 87 87 90 94 90 84 71
0 3 3 0 0 0 0 0 0 0 0 0 0 52 77 77 71 71 68 71 81 87 94 100 100 100 100 100 100 100 100 100 100 100 100 100 100 100 97 90 90 87 87 94 90 87 77 71 71
0 3 3 0 0 0 0 0 0 0 0 3 10 58 71 68 68 71 71 68 84 90 97 90 97 100 100 100 100 100 100 100 100 100 100 100 100 84 94 94 94 84 87 87 87 84 77 77 74
0 3 0 0 0 0 0 0 0 0 0 6 26 61 61 61 77 77 77 77 84 94 97 90 97 100 97 97 100 100 100 100 100 100 100 100 100 100 94 94 94 87 84 87 87 90 84 71 61
0 3 3 0 0 0 0 0 0 0 0 16 35 65 68 71 81 90 81 84 87 94 90 90 97 97 94 97 97 100 100 100 100 100 100 100 100 97 87 94 87 94 81 81 90 87 48 55 71
0 3 3 3 0 0 0 0 0 3 3 10 42 68 74 74 84 94 90 94 90 90 87 90 97 97 97 97 90 100 100 100 100 97 100 100 100 94 94 100 97 94 97 97 77 90 87 68 65
0 3 3 3 3 0 0 0 0 3 6 13 29 61 68 77 87 84 87 90 94 90 90 97 94 90 90 94 97 100 100 100 100 100 100 100 100 94 97 100 100 97 97 94 87 90 81 81 81
0 0 0 3 3 0 0 0 0 0 16 19 35 58 74 77 84 81 84 87 87 87 90 90 90 84 84 90 97 97 97 100 97 90 94 94 90 90 94 94 94 90 87 90 90 81 90 87 81
0 0 0 0 0 0 0 0 0 10 16 19 32 52 81 77 84 84 77 84 84 87 90 90 81 77 81 90 90 94 94 94 90 87 90 94 87 90 94 90 87 94 84 77 87 81 84 81 71
0 0 0 0 0 0 0 0 6 13 16 19 29 48 77 87 84 84 81 84 84 87 87 84 74 74 77 81 94 94 90 87 84 87 90 94 94 90 90 94 90 87 84 81 87 81 65 65 68
0 0 0 0 0 0 0 0 10 13 16 23 26 48 77 84 81 81 81 81 84 81 84 84 77 74 77 74 84 87 87 84 84 84 90 90 90 90 94 94 94 87 87 81 55 77 65 65 61
0 0 0 0 0 0 0 0 13 19 16 23 29 48 77 74 81 84 77 77 87 84 84 81 74 77 74 71 68 77 81 84 84 81 84 84 87 81 87 90 81 84 84 81 71 65 61 65 65
0 0 0 0 0 0 0 0 13 19 19 19 26 58 77 71 81 77 74 74 71 81 81 74 71 77 74 65 61 58 68 71 71 68 71 77 74 77 84 71 77 77 84 81 39 32 26 39 35
0 0 0 0 0 0 0 0 6 16 19 23 45 68 68 74 81 81 77 74 74 74 74 77 68 74 74 65 58 55 61 71 68 68 68 71 65 77 55 74 71 68 68 52 45 39 48 35 23
0 0 0 0 0 0 0 0 3 19 23 23 35 45 58 77 84 77 74 71 71 74 71 68 68 65 68 65 65 55 58 65 65 68 71 65 58 58 65 68 71 68 61 58 42 48 35 35 29
0 0 0 0 0 0 0 0 13 16 19 29 35 39 45 74 77 71 74 68 74 74 61 61 65 65 61 61 58 55 55 58 71 74 68 68 65 58 65 61 55 58 58 71 48 35 42 29 23
0 0 0 0 0 0 0 0 3 10 16 16 29 35 29 55 65 74 71 71 68 68 61 61 55 61 61 55 61 61 55 55 68 71 71 65 68 58 55 61 58 65 55 48 42 45 45 39 39
0 0 0 0 0 0 0 0 3 3 6 16 19 42 55 52 61 71 68 68 68 61 52 52 58 52 55 52 52 52 52 55 61 65 65 65 68 68 61 58 61 58 55 58 48 48 39 45 39
0 0 0 0 0 0 0 0 0 0 3 3 19 35 48 52 58 65 68 68 68 58 58 52 58 52 52 52 45 48 55 52 55 61 61 55 65 68 68 42 71 68 61 55 55 55 42 39 29
0 0 3 0 0 0 0 0 3 0 0 6 23 39 45 48 61 58 65 65 61 55 58 58 65 58 52 52 42 55 55 65 55 65 71 61 61 58 68 61 71 65 61 39 55 45 45 32 23
0 0 0 0 0 0 0 0 6 0 3 3 13 39 35 48 55 55 61 52 55 52 48 52 58 55 45 42 52 52 48 61 65 61 65 71 68 58 68 68 68 65 61 58 58 45 48 52 35
0 0 0 0 6 0 0 0 0 3 10 10 29 32 39 45 55 52 55 55 58 52 48 52 52 48 52 58 52 42 45 58 68 65 65 71 68 74 61 58 58 65 61 58 55 58 42 42 48
0 0 0 0 0 0 0 0 0 6 10 6 19 42 52 48 45 48 58 52 58 52 45 52 55 55 55 55 55 48 45 55 65 65 65 68 71 71 71 74 74 68 65 61 65 48 48 42 39
0 0 0 3 3 6 3 0 0 3 3 16 23 29 55 58 61 61 61 68 58 58 39 39 45 42 48 55 58 55 55 55 65 65 65 71 71 77 71 77 71 68 61 68 65 52 39 35 35

GEFSSGP_con_cape1000_138.txt.gz
Probability
52 35 10 23 35 19 3 3 0 0 0 3 10 10 10 13 0 3 3 35 39 77 97 100 100 100 100 100 100 100 100 100 100 100 100 100 100 100 100 100 100 100 100 100 100 100 100 97 97
13 10 16 19 16 0 0 0 0 0 3 3 19 19 32 45 39 32 29 48 58 84 97 100 100 100 100 100 100 100 100 100 100 100 100 100 100 97 100 100 100 100 100 100 100 97 97 97 100
3 3 13 13 13 0 0 0 0 3 10 16 26 23 29 42 58 45 45 61 68 90 97 100 100 100 100 100 100 100 100 100 100 100 100 100 97 97 100 100 100 100 97 97 97 94 94 97 94
3 3 6 6 0 3 0 0 0 0 13 26 29 32 32 45 71 61 45 61 77 97 97 100 100 100 100 100 100 100 100 100 100 100 100 100 100 100 97 97 100 100 100 94 94 97 97 97 97
0 3 3 3 3 6 0 0 0 6 13 35 45 42 39 61 68 58 58 71 81 97 100 100 100 100 100 100 100 100 100 100 100 100 100 100 100 100 97 97 97 97 100 100 97 97 97 94 90
0 0 0 0 0 0 0 0 3 16 35 42 52 45 45 65 52 52 61 74 84 100 100 100 100 100 100 100 100 100 100 100 100 100 100 100 100 100 100 100 97 97 97 100 100 97 97 90 84
0 0 0 0 0 0 0 0 3 10 29 39 48 48 42 61 61 68 71 74 84 100 100 100 100 100 100 100 100 100 100 100 100 100 100 100 100 100 97 100 100 94 97 100 97 87 84 81 81
3 0 0 0 0 0 0 0 3 16 29 39 48 55 45 55 61 71 77 84 84 94 100 100 100 100 100 100 100 100 100 100 100 100 100 100 100 100 100 100 100 100 100 100 100 90 77 77 77
0 0 0 0 0 0 0 0 0 10 29 42 42 52 45 58 77 90 87 81 81 90 94 100 97 97 100 100 100 100 100 100 100 100 100 100 97 97 94 94 100 97 97 97 94 90 81 84 74
0 0 0 0 0 0 0 0 0 19 32 35 42 58 58 58 68 84 84 74 81 84 94 97 94 90 94 100 100 97 100 97 97 97 97 77 65 68 81 97 100 97 97 97 94 90 81 52 26
0 0 0 0 0 0 0 3 3 16 26 29 39 58 55 55 55 68 77 74 81 77 84 94 87 84 84 90 97 90 90 90 90 90 77 68 52 61 61 68 90 84 77 65 87 71 39 26 13
0 0 0 0 0 0 0 3 3 10 26 32 45 48 52 45 55 68 77 74 65 68 74 77 74 68 58 68 87 81 84 87 84 71 68 48 42 45 45 48 45 35 23 13 6 16 6 6 3
0 0 0 0 0 0 0 0 3 10 19 39 45 48 48 45 45 52 55 61 74 71 68 71 61 61 55 58 58 74 68 71 71 74 68 45 35 26 29 35 29 29 16 13 10 10 6 6 3
0 0 0 0 0 0 0 3 6 13 23 39 55 45 48 45 45 39 52 55 68 61 65 77 68 55 55 55 52 61 52 39 58 61 58 42 35 19 23 23 26 26 19 16 3 6 6 6 6
0 0 0 0 0 0 0 0 6 16 26 39 48 55 52 48 48 52 45 58 61 61 65 68 68 58 52 48 55 61 48 48 61 55 48 39 39 19 19 23 23 23 16 13 10 10 3 3 6
0 0 0 0 0 0 0 0 6 16 29 45 48 58 61 52 58 55 48 55 52 55 68 65 77 58 52 52 55 58 58 48 58 52 39 32 39 32 26 26 19 16 13 13 10 10 10 3 3
0 0 0 0 0 0 0 0 6 6 26 42 48 61 68 61 55 48 45 52 61 58 65 68 61 58 61 58 48 45 42 39 48 42 32 32 35 42 32 23 16 13 6 6 3 3 0 0 0
0 0 0 0 0 0 0 3 6 6 13 39 52 58 61 55 55 55 48 52 58 55 61 61 58 55 52 45 35 39 39 32 26 32 26 32 39 32 29 23 13 13 10 6 0 3 0 0 0
0 0 0 0 0 0 0 3 6 6 13 19 35 52 52 52 45 58 55 58 48 48 52 58 48 45 48 42 35 35 39 35 32 32 23 32 32 26 23 19 10 10 6 3 3 3 0 0 0
0 0 0 0 0 0 0 3 3 10 13 16 19 35 48 48 55 58 58 58 58 55 52 48 45 45 39 35 29 29 32 29 32 29 23 26 26 19 23 10 10 10 3 3 0 0 0 0 0
0 0 0 0 0 0 3 6 6 10 13 13 16 19 39 48 52 55 61 61 55 55 52 48 45 42 35 29 26 26 23 23 29 26 19 23 19 26 19 10 10 6 3 3 0 0 0 0 0
0 0 0 0 0 0 0 0 10 13 13 13 10 19 32 45 48 55 58 55 52 48 45 42 35 39 32 29 29 29 29 26 16 19 13 16 19 16 10 10 6 6 3 0 0 0 0 0 0
0 0 0 0 0 0 0 0 0 10 13 10 10 13 26 42 45 55 58 45 48 52 52 39 35 35 32 29 29 29 26 16 13 16 13 13 13 19 13 10 6 6 0 0 0 0 0 0 0
0 0 0 0 0 0 0 0 0 3 10 10 19 13 23 35 55 52 48 39 35 45 45 35 35 32 32 32 29 26 16 10 13 16 13 16 13 13 10 6 6 6 0 0 0 0 0 0 0
0 0 0 0 0 0 0 0 0 0 0 6 13 13 26 39 45 39 42 42 35 39 39 35 32 32 32 32 26 19 13 13 13 13 13 13 13 10 10 10 6 6 3 0 0 3 0 0 0
0 0 0 0 0 0 0 0 0 0 0 6 10 10 23 35 29 39 45 39 45 39 39 32 32 29 26 26 26 26 19 13 13 13 13 13 13 13 10 10 6 6 3 0 0 3 3 0 0
0 0 0 0 0 0 0 0 0 0 0 3 6 6 19 23 29 42 42 39 42 39 26 26 19 19 23 19 19 19 16 16 13 13 10 13 13 13 10 6 6 6 0 0 0 3 3 0 0
0 0 0 0 0 0 0 0 0 0 0 3 6 10 10 16 16 26 35 35 32 32 19 19 19 19 16 16 16 16 16 16 16 13 10 10 10 6 10 3 3 6 3 0 0 0 3 0 0
0 0 0 0 0 0 0 0 0 0 0 0 0 13 10 13 16 16 19 23 19 23 16 13 16 16 16 13 13 13 16 16 16 16 16 13 13 6 6 6 10 6 3 0 0 0 0 0 0
0 0 0 0 0 0 0 0 0 0 0 0 0 13 16 10 13 13 13 19 19 19 16 13 13 16 16 13 19 19 19 19 23 23 19 16 13 10 10 6 6 10 3 0 0 0 0 0 0

GEFSSGP_con_cape1000_144.txt.gz
Probability
32 45 35 23 6 0 0 0 0 0 3 0 0 0 3 3 0 0 0 6 26 71 87 100 100 100 100 100 100 100 100 100 100 100 100 100 100 100 100 100 100 100 100 94 97 97 97 97 100
26 19 19 13 3 0 0 0 0 0 3 3 16 19 26 29 16 3 3 19 65 74 90 94 100 100 100 100 100 100 100 100 100 100 100 100 100 100 100 100 100 97 97 90 94 94 97 97 97
10 6 6 0 0 0 0 0 0 0 10 10 19 19 42 45 35 16 19 35 71 74 84 94 100 100 100 100 100 100 100 100 100 100 100 100 100 100 100 100 100 94 97 97 97 97 97 100 97
3 0 0 0 0 0 0 0 0 6 13 13 19 29 52 52 48 29 32 65 81 81 84 100 100 100 100 100 100 100 100 100 100 100 100 100 100 100 100 100 97 97 97 97 97 97 97 100 100
3 3 0 0 0 3 0 0 3 3 16 32 32 39 45 68 65 48 45 74 81 84 94 100 100 100 100 100 100 100 100 100 100 100 100 100 100 100 100 100 100 97 97 97 97 97 97 100 100
0 0 0 0 0 0 0 0 0 16 39 39 32 52 52 65 65 58 61 68 74 90 97 100 100 100 100 100 100 100 100 100 100 100 100 100 100 100 100 100 100 97 97 97 100 100 97 97 97
0 0 0 0 0 0 0 0 6 23 35 42 42 61 48 58 65 58 61 81 87 97 100 100 100 100 100 100 100 100 100 100 100 100 100 100 100 100 100 100 100 94 100 100 100 100 84 90 90
0 0 0 0 0 0 0 0 13 23 35 55 55 52 52 65 65 55 71 81 94 97 100 100 100 100 100 100 100 100 100 100 100 100 100 100 100 100 100 100 97 94 97 94 90 87 77 84 84
0 0 0 0 0 0 0 0 16 26 42 52 52 55 68 71 74 65 74 81 87 94 97 94 97 100 100 100 100 100 100 100 100 100 100 100 97 94 97 94 100 94 94 94 90 94 84 84 81
0 0 0 0 0 0 0 6 6 26 35 42 61 81 74 81 71 71 71 65 81 90 90 87 84 87 94 100 100 100 100 97 97 97 97 84 81 71 87 97 97 97 97 94 90 90 74 52 39
0 0 0 0 0 0 0 0 10 23 23 35 65 77 74 77 71 71 65 65 65 77 77 84 84 84 84 87 90 87 90 90 90 87 74 58 45 55 65 71 84 90 87 68 68 61 29 23 19
0 0 0 0 0 0 0 0 6 13 16 19 58 81 84 84 77 65 58 61 58 65 74 81 81 81 77 68 90 87 87 87 77 71 65 45 42 29 32 42 45 32 26 32 26 16 16 6 6
0 0 0 0 0 0 0 0 3 6 13 26 68 84 81 84 77 68 61 52 55 52 65 74 74 74 71 61 71 87 77 77 65 65 55 42 39 39 26 29 23 19 13 10 6 10 10 6 6
0 0 0 0 0 0 0 3 3 6 13 42 74 77 84 81 77 71 68 55 61 55 58 68 65 65 58 55 58 68 65 65 55 58 48 35 32 35 26 16 16 13 10 10 10 10 6 6 6
0 0 0 0 0 0 0 3 3 10 29 45 65 74 81 77 81 74 58 45 42 48 52 61 58 61 48 48 52 61 58 55 55 55 32 39 35 26 26 13 13 13 10 10 6 3 3 3 6
0 0 0 0 0 0 0 0 0 13 32 42 61 58 58 61 61 58 58 42 32 35 42 48 55 52 45 42 39 39 48 42 35 39 35 39 35 23 13 13 10 10 13 10 3 3 3 3 0
0 0 0 0 0 0 0 0 0 16 29 35 42 45 52 48 48 45 45 42 39 39 35 48 48 45 45 35 32 32 35 32 29 32 32 32 29 16 6 13 10 10 10 3 3 0 0 0 0
0 0 0 0 0 0 0 0 0 13 26 23 32 35 32 35 39 35 35 35 32 26 29 35 29 32 26 26 23 26 26 29 29 26 23 26 26 23 6 10 6 6 3 3 3 0 0 0 0
0 0 0 0 0 0 0 0 3 10 23 29 29 29 32 35 35 32 35 42 35 26 23 23 19 16 19 23 23 23 23 23 23 19 16 13 13 19 16 10 6 6 6 3 3 0 0 0 0
0 0 0 0 0 0 0 0 0 6 13 23 16 26 32 32 32 29 32 35 35 29 23 19 23 16 19 26 16 13 16 16 16 16 13 10 13 16 13 10 6 3 3 3 0 0 0 0 0
0 0 0 0 0 0 0 0 3 3 6 13 10 13 26 35 32 32 39 35 35 35 32 26 19 19 19 19 13 13 10 13 10 16 13 10 16 13 13 6 3 3 3 3 0 0 0 0 0
0 0 0 0 0 0 0 0 0 3 3 10 13 19 23 26 32 35 42 32 29 26 26 23 16 16 16 13 13 13 16 16 16 10 10 6 13 13 13 6 3 3 0 0 0 0 0 0 0
0 0 0 0 0 0 0 0 0 0 3 0 6 10 16 26 23 29 39 39 26 26 23 19 26 26 16 16 10 10 13 13 13 10 10 6 3 6 10 10 3 3 3 0 0 0 0 0 0
0 0 0 0 0 0 0 0 0 0 3 0 3 3 16 19 26 29 35 26 26 23 26 26 26 19 13 10 6 10 10 6 10 6 10 6 3 3 6 6 3 3 3 3 3 0 0 0 0
0 0 0 0 0 0 0 0 0 0 0 0 0 6 16 19 26 26 19 26 23 26 26 26 23 23 16 10 10 10 6 6 10 10 3 3 3 3 3 3 3 3 3 3 3 0 0 0 0
0 0 0 0 0 0 0 0 0 0 0 0 3 3 10 16 23 32 29 19 26 26 32 19 19 23 16 16 13 10 6 6 6 6 6 3 3 3 3 3 3 3 3 3 3 3 0 0 0
0 0 0 0 0 0 0 0 0 0 3 3 3 10 13 10 23 23 26 32 26 26 23 26 19 23 16 16 13 10 10 6 6 6 6 3 3 3 3 3 3 3 3 3 3 3 3 3 0
0 0 0 0 0 0 0 0 0 0 0 6 3 3 13 10 10 19 23 29 19 16 16 19 29 26 16 16 13 13 10 10 6 6 6 3 3 3 3 3 3 3 0 0 0 3 3 3 3
0 0 0 0 0 0 0 0 0 0 0 0 6 6 10 10 10 10 6 16 16 16 16 19 23 23 16 13 13 13 13 10 10 6 6 6 3 3 3 3 3 3 3 0 0 0 0 0 0
0 0 0 0 0 0 0 0 0 0 0 0 6 3 0 6 10 6 10 13 13 16 19 19 19 16 13 13 13 13 13 13 13 10 6 6 6 3 3 3 3 3 3 0 0 0 0 0 0

GEFSSGP_con_cape1000_150.txt.gz
Probability
16 29 48 65 65 6 0 0 0 0 0 0 0 0 0 3 3 35 19 10 13 29 77 100 100 100 100 100 100 100 100 100 100 100 100 100 100 100 100 100 100 97 97 97 97 97 97 97 97
16 35 52 42 16 0 0 0 0 3 6 3 0 10 13 29 52 48 19 13 26 39 77 94 100 100 100 100 100 100 100 100 100 100 100 100 100 100 100 100 100 100 94 94 97 97 97 97 97
16 26 35 23 0 0 0 0 6 10 3 3 10 19 32 58 52 42 29 23 32 61 90 100 100 100 100 100 100 100 100 100 100 100 100 100 100 100 100 100 100 97 90 90 97 97 100 97 94
16 23 29 10 0 0 0 0 6 3 13 10 16 32 65 74 55 39 35 29 26 71 87 100 100 100 100 100 100 100 100 100 100 100 100 100 100 100 100 100 100 97 97 97 97 100 97 94 94
23 23 3 3 0 0 0 0 3 6 6 13 13 29 77 87 65 42 48 39 48 55 84 100 100 100 100 100 100 100 100 100 100 100 100 100 100 100 100 100 97 97 97 97 94 97 97 97 94
13 10 0 0 0 0 0 0 0 3 6 16 16 29 90 90 71 65 52 42 39 52 84 100 100 100 100 100 100 100 100 100 100 100 100 100 100 100 100 97 97 97 97 94 94 94 94 97 97
6 3 0 0 0 0 0 0 0 3 10 19 23 42 90 94 74 65 65 45 35 45 81 100 100 100 100 100 100 100 100 100 100 100 100 100 100 100 97 100 97 97 97 100 94 87 84 90 94
3 0 0 0 0 0 0 0 3 6 16 35 39 35 81 97 84 68 68 55 48 58 74 97 94 100 100 100 100 100 100 100 100 100 100 100 100 100 97 100 100 90 94 97 87 84 81 81 84
3 0 0 0 0 0 0 0 13 23 45 61 68 71 94 97 84 84 74 71 71 74 77 84 90 100 100 97 100 100 100 100 100 100 100 100 97 77 84 84 94 90 90 90 84 81 71 74 84
3 0 0 0 0 0 0 0 10 32 39 65 84 100 100 97 90 90 87 84 84 87 84 84 87 100 94 87 97 97 100 100 97 97 97 97 94 87 71 94 90 90 87 81 84 74 71 65 71
0 0 0 0 0 0 0 0 3 6 13 45 77 100 100 97 94 87 87 87 94 94 87 84 97 100 94 90 97 97 97 100 100 100 100 100 100 94 81 94 94 100 90 81 81 65 61 58 58
0 0 0 0 0 0 0 0 0 0 6 32 68 90 100 100 97 87 90 87 90 94 94 87 97 100 94 94 97 97 94 100 100 100 100 100 97 90 84 97 90 94 94 87 65 74 65 55 55
0 0 0 0 0 0 0 0 0 3 13 42 71 90 100 100 100 90 94 90 97 97 94 90 87 90 94 94 97 97 94 97 97 100 100 100 94 94 87 97 94 68 74 77 74 58 68 61 61
0 0 0 0 0 0 0 0 3 13 35 58 77 94 100 100 100 97 94 90 94 87 90 90 90 90 90 94 94 97 94 100 90 100 100 97 94 97 90 100 100 71 71 58 65 55 71 58 55
0 0 0 0 0 0 0 0 3 19 52 68 77 90 100 100 100 100 100 97 94 94 87 90 87 87 87 87 87 90 97 100 94 97 100 97 94 100 94 81 97 71 68 87 81 61 61 61 55
0 0 0 0 0 0 0 0 10 19 55 68 74 90 97 100 100 100 100 100 100 94 94 90 81 84 84 84 87 94 90 94 87 94 97 97 90 100 100 87 81 84 81 74 77 68 48 42 39
0 0 0 0 0 0 0 0 6 23 39 58 68 87 90 94 97 90 90 94 97 90 87 84 84 84 84 84 87 87 94 94 90 87 87 94 97 87 97 84 90 84 71 61 48 55 42 42 42
0 0 0 0 0 0 0 0 6 23 26 42 71 84 84 90 90 90 87 94 90 84 84 84 84 84 84 84 87 94 97 97 90 87 87 84 90 94 90 94 94 71 68 81 68 68 61 55 52
0 0 0 0 0 0 0 0 3 23 26 42 61 84 84 90 90 87 90 90 94 94 87 81 84 81 77 77 87 90 94 87 90 94 81 84 84 87 94 77 94 87 74 71 52 55 58 45 42
0 0 0 0 0 0 0 0 13 26 32 45 55 81 87 94 94 87 87 87 87 87 84 84 87 87 87 84 84 90 87 90 77 81 87 87 77 87 74 87 87 84 90 87 71 68 52 52 42
0 0 0 0 0 0 0 0 10 26 39 48 55 81 87 97 94 87 84 84 81 84 81 74 74 81 81 81 84 71 84 74 61 71 74 77 77 77 74 84 74 81 71 68 81 74 61 42 45
0 0 0 0 0 0 0 0 3 26 35 55 52 61 77 97 90 87 84 84 84 81 77 74 74 74 71 74 61 58 58 45 48 68 74 77 74 77 74 74 81 77 68 74 61 45 58 58 39
0 0 0 0 0 0 0 0 3 19 23 26 42 52 65 65 81 81 81 81 77 71 74 74 77 74 71 74 68 65 55 48 48 55 65 68 77 74 68 71 74 77 68 65 55 61 58 52 42
0 0 0 0 0 0 0 0 3 10 19 19 35 48 58 65 68 65 81 81 71 71 68 68 77 77 71 68 61 58 55 52 45 48 45 52 58 68 65 61 77 74 68 68 71 65 61 52 48
0 0 0 0 0 0 0 0 3 13 23 19 32 39 52 58 68 68 74 74 71 68 65 58 71 71 71 55 52 48 42 48 48 52 48 45 39 42 61 55 77 74 71 61 68 71 61 52 52
0 0 0 0 0 0 0 0 10 10 19 23 26 42 45 48 68 74 84 77 65 65 61 68 68 68 61 48 48 52 48 58 55 52 42 48 45 42 52 55 61 68 65 55 71 61 58 61 61
0 0 0 0 0 0 0 3 13 26 19 26 29 39 55 45 68 77 77 74 68 61 61 52 68 65 58 42 48 39 39 39 39 48 52 39 45 39 45 48 55 52 55 65 68 65 65 61 42
0 0 0 0 0 0 0 0 3 29 29 23 32 48 48 68 74 71 77 65 65 65 58 55 52 61 55 52 48 39 45 42 48 42 39 42 45 39 39 45 45 52 55 58 65 61 65 55 55
0 0 0 0 0 0 0 0 6 19 23 23 19 42 55 55 65 68 71 68 65 52 48 55 52 58 61 48 45 48 52 45 48 42 39 39 45 45 39 32 35 35 42 45 61 52 45 42 39
0 0 0 0 0 0 0 3 13 19 26 26 35 48 61 65 65 58 61 58 61 55 52 48 48 45 48 48 48 52 45 48 45 42 35 35 42 39 39 35 39 32 32 35 45 35 26 26 29

GEFSSGP_con_cape1000_156.txt.gz
Probability
3 6 39 74 77 52 3 0 0 0 0 0 0 3 16 19 16 19 26 39 55 58 87 100 100 100 100 100 100 100 100 100 100 100 100 100 100 100 100 97 94 94 94 97 94 94 90 94 94
6 19 39 58 55 10 0 0 0 0 0 0 0 10 19 16 6 23 32 68 58 52 77 100 100 100 100 100 100 100 100 100 100 100 100 100 100 100 100 100 97 94 94 94 94 94 90 87 90
6 19 23 45 39 0 0 0 0 0 0 0 0 13 23 13 10 35 45 68 58 61 94 100 100 100 100 100 100 100 100 100 100 100 100 100 100 100 100 100 100 97 97 97 97 94 97 90 87
23 19 26 19 10 0 0 0 0 0 0 0 6 13 23 16 29 35 45 71 81 97 97 100 100 100 100 100 100 100 100 100 100 100 100 100 100 100 97 100 100 94 94 100 100 97 90 90 84
16 16 19 3 0 0 0 0 3 0 0 0 29 29 23 23 26 29 48 74 87 97 97 100 100 100 100 100 100 100 100 100 100 100 100 100 100 100 100 97 97 97 94 94 97 94 94 90 74
13 16 6 0 0 0 0 0 0 0 0 6 29 42 35 32 26 32 42 61 87 100 100 100 100 100 100 100 100 100 100 100 100 100 100 100 100 97 97 94 97 97 94 94 94 97 94 84 77
6 3 0 0 0 0 0 0 0 0 0 6 32 42 42 42 29 29 48 68 84 90 100 100 100 100 100 100 100 100 100 100 97 100 100 100 100 97 97 94 97 97 94 84 84 87 87 87 71
3 3 0 0 0 0 0 0 0 3 3 3 16 48 52 52 48 42 55 65 74 94 94 100 100 100 100 100 100 100 100 100 97 97 100 100 100 97 97 100 100 97 94 81 81 84 77 84 74
0 0 0 0 0 0 0 0 0 0 0 0 32 61 61 48 48 52 55 65 74 90 94 90 100 100 100 100 100 100 100 100 100 100 100 100 97 94 97 100 100 94 84 77 77 77 74 77 74
0 0 0 0 0 0 0 0 0 0 0 26 55 71 58 48 52 55 65 65 65 84 81 87 100 100 100 94 97 97 100 100 100 100 100 100 100 100 97 97 97 90 87 81 81 77 77 71 52
0 0 0 0 0 0 0 0 0 0 3 35 68 71 71 65 65 65 74 74 68 84 81 84 97 97 97 97 97 97 97 100 100 100 100 100 100 100 97 94 94 97 90 90 87 84 61 71 77
0 0 0 0 0 0 0 0 0 0 0 32 65 81 81 81 77 74 84 81 81 77 81 84 97 97 94 94 94 94 94 94 97 100 100 100 100 100 97 97 94 97 94 97 94 97 77 84 84
0 0 0 0 0 0 0 0 0 0 10 42 71 84 97 87 87 87 84 94 97 97 90 94 97 94 90 94 94 94 94 94 94 100 100 100 97 100 100 97 97 97 97 97 100 97 84 84 84
0 0 0 0 0 0 0 0 3 6 23 42 81 87 90 97 100 97 97 100 100 97 97 97 97 90 90 90 94 94 94 94 94 97 97 100 97 100 100 97 100 97 97 97 97 97 87 87 94
0 0 0 0 0 0 0 0 3 10 19 39 68 90 90 94 97 100 100 100 100 100 100 97 94 90 90 90 90 94 90 90 94 90 100 100 100 100 100 97 97 97 97 97 97 97 90 90 84
0 0 0 0 0 0 0 0 3 3 16 29 58 81 87 90 94 100 100 100 100 100 97 97 90 87 87 87 87 90 94 90 94 97 100 100 100 100 100 100 97 97 97 97 97 97 94 94 90
0 0 0 0 0 0 0 0 3 3 10 29 45 77 87 90 97 100 100 100 100 100 97 97 90 90 90 90 87 94 94 90 94 97 100 100 100 100 100 97 97 97 97 90 90 97 97 94 87
0 0 0 0 0 0 0 0 0 0 3 16 45 71 90 90 100 100 100 100 100 100 94 94 90 90 90 90 87 90 90 90 97 97 100 100 97 97 97 97 97 97 97 100 94 90 94 94 87
0 0 0 0 0 0 0 0 0 0 0 13 39 61 84 94 97 100 97 100 100 100 94 94 90 90 90 90 87 84 84 87 90 94 90 97 94 97 100 90 97 100 97 94 90 90 90 81 81
0 0 0 0 0 0 3 0 0 0 3 10 39 65 84 94 94 97 97 100 100 97 94 94 94 90 90 90 90 87 81 77 77 84 90 97 97 100 90 97 90 87 94 94 94 90 87 77 74
0 0 0 0 0 0 0 0 0 3 3 16 35 55 74 84 97 94 94 97 97 97 94 90 94 90 90 87 90 84 87 81 81 87 90 87 90 94 94 87 87 84 90 94 94 90 74 74 61
0 0 0 0 0 0 0 0 0 3 13 16 26 39 61 81 90 94 97 97 94 94 94 90 90 87 90 87 87 77 74 71 71 81 81 84 87 87 90 81 84 87 84 90 90 81 84 71 65
0 0 0 0 0 0 0 0 0 10 10 13 19 26 42 71 84 87 81 90 87 87 90 90 90 90 90 90 87 81 77 74 77 77 77 77 77 87 90 87 87 90 90 94 94 84 84 71 65
0 0 0 0 0 0 0 0 3 6 10 19 26 32 52 55 74 87 87 90 90 81 81 84 87 90 90 90 84 81 87 81 71 68 65 65 81 84 87 87 90 90 94 94 87 81 77 77 77
0 0 0 0 0 0 0 0 3 10 16 23 26 48 42 65 74 84 87 87 87 84 81 81 87 87 87 84 84 90 84 74 71 71 71 74 65 74 77 77 84 94 94 90 90 84 74 74 77
0 0 0 0 0 0 0 0 10 16 19 29 39 45 42 55 77 81 87 87 87 84 81 84 84 81 81 81 87 81 87 77 77 68 68 65 65 61 71 77 81 84 77 74 90 90 84 74 77
0 0 0 0 0 0 0 3 16 19 23 26 29 32 42 48 65 71 84 77 84 84 84 84 81 84 84 81 81 81 84 84 81 77 71 68 68 61 65 61 68 71 71 71 77 77 77 68 65
0 0 0 0 6 0 0 0 16 23 26 26 29 32 42 55 71 74 74 71 71 77 84 81 81 77 81 77 77 71 74 74 71 74 74 68 65 68 61 55 58 71 68 68 71 74 68 61 58
0 0 0 0 0 0 0 0 6 26 35 32 32 32 35 61 61 65 71 77 74 81 77 77 81 74 71 74 74 74 71 68 68 58 58 68 65 61 61 48 52 52 52 58 55 58 55 55 55
0 0 0 0 10 3 0 6 10 13 16 29 29 39 45 61 61 65 71 77 81 68 77 71 68 71 71 74 74 77 74 68 55 48 52 65 58 52 52 48 45 42 42 42 52 52 48 48 52